Merimbula Observation History
Time Wind Speed Temp Pressure Rel. Hum Rain
30/11:00am CALM 0 kts 24.9°c 1011.6 hPa 59% 0.0mm
30/10:30am NNW 1-4 kts 24.0°c 1011.7 hPa 68% 0.0mm
30/10:00am NW 3-4 kts 22.1°c 1011.8 hPa 77% 0.0mm
30/09:30am NW 1-4 kts 19.7°c 1011.7 hPa 89% 0.0mm
30/09:00am CALM 0 kts 18.2°c 1011.8 hPa 97% 3.8mm
30/08:30am SSW 2-4 kts 17.6°c 1011.5 hPa 99% 3.8mm
30/08:00am NW 1-6 kts 16.7°c 1011.2 hPa 99% 3.8mm
30/07:30am SW 1-5 kts 16.3°c 1011.2 hPa 99% 3.8mm
30/07:00am CALM 0-3 kts 16.4°c 1010.9 hPa 99% 3.8mm
30/06:30am WNW 2-5 kts 16.9°c 1010.6 hPa 99% 3.8mm
30/06:00am SW 3-4 kts 16.7°c 1010.6 hPa 99% 3.6mm
30/05:30am CALM 0-3 kts 16.6°c 1010.4 hPa 99% 3.6mm
30/05:00am W 3-5 kts 17.0°c 1010.4 hPa 99% 3.6mm
30/04:30am SSW 2-5 kts 16.8°c 1010.4 hPa 99% 3.6mm
30/04:00am SW 3-5 kts 17.0°c 1010.5 hPa 98% 3.6mm
30/03:30am WSW 4-5 kts 17.3°c 1010.5 hPa 97% 3.6mm
30/03:00am W 5-8 kts 17.5°c 1011.0 hPa 98% 3.6mm
30/02:30am NW 3-7 kts 17.6°c 1011.2 hPa 99% 3.6mm
30/02:00am CALM 0 kts 17.5°c 1011.6 hPa 99% 3.6mm
30/01:30am NNW 1-5 kts 17.6°c 1011.7 hPa 98% 3.6mm
30/01:00am NW 1-5 kts 17.8°c 1012.1 hPa 98% 3.6mm
30/12:30am CALM 0 kts 17.8°c 1012.8 hPa 97% 3.6mm
30/12:00am NNE 3-5 kts 18.0°c 1013.2 hPa 97% 3.6mm
Time Wind Speed Temp Pressure Rel. Hum Rain
29/11:30pm N 1-4 kts 18.5°c 1013.9 hPa 95% 3.0mm
29/11:00pm NW 3-5 kts 19.0°c 1014.5 hPa 96% 2.0mm
29/10:30pm SW 1-3 kts 19.4°c 1014.5 hPa 95% 1.2mm
29/10:00pm NW 1-5 kts 19.8°c 1014.9 hPa 91% 0.0mm
29/09:30pm CALM 0 kts 19.6°c 1014.5 hPa 91% 0.0mm
29/09:00pm CALM 0 kts 20.2°c 1014.2 hPa 89% 0.0mm
29/08:30pm CALM 0 kts 20.1°c 1013.9 hPa 89% 0.0mm
29/08:00pm CALM 0 kts 20.5°c 1013.9 hPa 88% 0.0mm
29/07:30pm ENE 5-7 kts 20.4°c 1013.3 hPa 87% 0.0mm
29/07:00pm NE 5-8 kts 20.9°c 1013.5 hPa 86% 0.0mm
29/06:30pm NE 6-11 kts 21.2°c 1013.2 hPa 84% 0.0mm
29/06:00pm NNE 9-16 kts 21.5°c 1012.9 hPa 83% 0.0mm
29/05:30pm NNE 11-18 kts 22.0°c 1013.0 hPa 80% 0.0mm
29/05:00pm NNE 11-21 kts 23.0°c 1013.1 hPa 75% 0.0mm
29/04:30pm NNE 11-18 kts 23.3°c 1013.3 hPa 74% 0.0mm
29/04:00pm NNE 10-18 kts 23.3°c 1013.7 hPa 75% 0.0mm
29/03:30pm NNE 13-23 kts 22.6°c 1014.1 hPa 76% 0.0mm
29/03:00pm NNE 12-20 kts 22.1°c 1014.5 hPa 81% 0.0mm
29/02:30pm NNE 11-20 kts 22.2°c 1014.9 hPa 80% 0.0mm
29/02:00pm NNE 12-22 kts 22.1°c 1015.5 hPa 81% 0.0mm
29/01:30pm NNE 12-19 kts 21.9°c 1016.1 hPa 78% 0.0mm
29/01:00pm NNE 11-17 kts 23.1°c 1016.7 hPa 72% 0.0mm
29/12:30pm NE 11-17 kts 22.7°c 1017.2 hPa 75% 0.0mm
29/12:00pm NE 10-16 kts 22.9°c 1017.5 hPa 69% 0.0mm
29/11:30am N 7-15 kts 24.3°c 1018.0 hPa 62% 0.0mm
29/11:00am N 7-12 kts 23.5°c 1018.6 hPa 62% 0.0mm
29/10:30am N 5-8 kts 22.9°c 1018.8 hPa 65% 0.0mm
29/10:00am NE 5-11 kts 21.7°c 1019.1 hPa 69% 0.0mm
29/09:30am NW 1-4 kts 19.1°c 1019.3 hPa 77% 0.0mm
29/09:00am CALM 0 kts 17.6°c 1019.3 hPa 88% 0.0mm
29/08:30am CALM 0 kts 15.1°c 1019.1 hPa 99% 0.0mm
29/08:00am SW 4-5 kts 13.4°c 1019.1 hPa 99% 0.0mm
29/07:30am CALM 0 kts 12.4°c 1018.9 hPa 99% 0.0mm
29/07:00am CALM 0 kts 12.4°c 1018.7 hPa 99% 0.0mm
29/06:30am CALM 0 kts 12.6°c 1018.4 hPa 99% 0.0mm
29/06:04am CALM 0 kts 12.8°c 1018.4 hPa 98% 0.0mm
29/06:00am CALM 0 kts 12.9°c 1018.5 hPa 99% 0.0mm
29/05:44am CALM 0 kts 13.0°c 1018.6 hPa 98% 0.0mm
29/05:30am CALM 0 kts 13.0°c 1018.6 hPa 98% 0.0mm
29/05:00am CALM 0 kts 13.2°c 1018.7 hPa 97% 0.0mm
29/04:30am CALM 0 kts 13.5°c 1018.9 hPa 95% 0.0mm
29/04:00am WNW 5-6 kts 14.6°c 1019.1 hPa 96% 0.0mm
29/03:30am NW 4-5 kts 14.6°c 1019.2 hPa 95% 0.0mm
29/03:00am NW 5-6 kts 14.6°c 1019.7 hPa 95% 0.0mm
29/02:30am WNW 5-7 kts 15.3°c 1019.9 hPa 91% 0.0mm
29/02:00am NW 3-5 kts 16.3°c 1020.2 hPa 86% 0.0mm
29/01:30am NNW 5-8 kts 18.0°c 1020.4 hPa 79% 0.0mm
29/01:00am N 8-13 kts 18.8°c 1020.6 hPa 74% 0.0mm
29/12:30am N 8-14 kts 18.8°c 1020.9 hPa 75% 0.0mm
29/12:00am N 7-13 kts 18.6°c 1021.3 hPa 78% 0.0mm
Time Wind Speed Temp Pressure Rel. Hum Rain
28/11:30pm NNW 5-8 kts 17.8°c 1021.7 hPa 84% 0.0mm
28/11:00pm NNW 6-8 kts 18.5°c 1021.9 hPa 80% 0.0mm
28/10:30pm NNW 7-12 kts 19.0°c 1022.0 hPa 78% 0.0mm
28/10:00pm N 7-10 kts 19.0°c 1022.0 hPa 80% 0.0mm
28/09:30pm N 5-10 kts 18.9°c 1022.2 hPa 82% 0.0mm
28/09:00pm N 6-9 kts 19.1°c 1022.2 hPa 81% 0.0mm
28/08:30pm N 7-11 kts 19.5°c 1022.0 hPa 78% 0.0mm
28/08:00pm N 7-13 kts 19.9°c 1021.7 hPa 76% 0.0mm
28/07:30pm N 6-15 kts 20.1°c 1021.8 hPa 77% 0.0mm
28/07:00pm NNE 8-13 kts 20.3°c 1021.7 hPa 75% 0.0mm
28/06:30pm NNE 7-13 kts 20.5°c 1021.6 hPa 74% 0.0mm
28/06:00pm NNE 8-15 kts 20.6°c 1021.5 hPa 74% 0.0mm
28/05:30pm NNE 9-18 kts 21.3°c 1021.5 hPa 72% 0.0mm
28/05:00pm NNE 11-17 kts 20.9°c 1021.7 hPa 71% 0.0mm
28/04:30pm NNE 9-16 kts 21.2°c 1021.8 hPa 75% 0.0mm
28/04:00pm NNE 12-20 kts 21.5°c 1021.9 hPa 69% 0.0mm
28/03:30pm NE 10-19 kts 21.5°c 1022.2 hPa 71% 0.0mm
28/03:00pm NNE 11-19 kts 21.4°c 1022.6 hPa 69% 0.0mm
28/02:30pm NNE 10-19 kts 22.3°c 1022.8 hPa 66% 0.0mm
28/02:00pm NE 9-15 kts 22.1°c 1023.2 hPa 67% 0.0mm
28/01:30pm NE 9-16 kts 22.2°c 1023.8 hPa 65% 0.0mm
28/01:00pm NE 10-18 kts 22.0°c 1024.3 hPa 65% 0.0mm
28/12:30pm NE 11-20 kts 22.2°c 1024.5 hPa 62% 0.0mm
28/12:00pm NE 8-13 kts 21.9°c 1024.8 hPa 63% 0.0mm
28/11:30am N 9-13 kts 22.1°c 1025.2 hPa 59% 0.0mm
28/11:00am N 9-16 kts 21.5°c 1025.4 hPa 60% 0.0mm
28/10:30am N 7-14 kts 21.1°c 1025.6 hPa 60% 0.0mm
28/10:00am N 5-9 kts 20.2°c 1025.7 hPa 65% 0.0mm
28/09:30am NW 3-6 kts 18.0°c 1025.7 hPa 84% 0.0mm
28/09:00am CALM 0 kts 15.6°c 1025.7 hPa 92% 0.0mm
28/08:30am S 2-3 kts 13.6°c 1025.7 hPa 99% 0.0mm
28/08:00am SW 4-5 kts 12.3°c 1025.5 hPa 99% 0.0mm
28/07:30am SSW 2-6 kts 11.2°c 1025.4 hPa 99% 0.0mm
28/07:00am CALM 0 kts 11.1°c 1025.2 hPa 99% 0.0mm
28/06:30am CALM 0 kts 11.0°c 1025.0 hPa 99% 0.0mm
28/06:00am CALM 0 kts 10.8°c 1025.0 hPa 99% 0.0mm
28/05:30am SW 3 kts 10.8°c 1025.0 hPa 99% 0.0mm
28/05:00am CALM 0 kts 10.9°c 1024.9 hPa 99% 0.0mm
28/04:30am CALM 0-1 kts 11.5°c 1024.8 hPa 99% 0.0mm
28/04:00am CALM 0-3 kts 11.8°c 1024.7 hPa 99% 0.0mm
28/03:30am CALM 0 kts 12.0°c 1025.0 hPa 99% 0.0mm
28/03:00am SW 5-6 kts 12.6°c 1025.2 hPa 99% 0.0mm
28/02:30am WSW 3-4 kts 12.1°c 1025.4 hPa 98% 0.0mm
28/02:00am SSW 3-5 kts 12.6°c 1025.6 hPa 99% 0.0mm
28/01:30am WSW 3-4 kts 12.9°c 1025.6 hPa 99% 0.0mm
28/01:00am CALM 0 kts 12.7°c 1025.7 hPa 95% 0.0mm
28/12:30am CALM 0 kts 13.2°c 1026.0 hPa 95% 0.0mm
28/12:00am CALM 0 kts 14.1°c 1026.1 hPa 93% 0.0mm